Regional Weather Roundup
Issued by NWS Spokane, WA

Home | Current Version | Previous Version | Text Only | Print | Product List | Glossary On
Versions: 1 2 3 4 5 6 7 8 9 10 11 12 13 14 15 16 17 18 19 20 21 22 23 24 25 26 27 28 29 30 31 32 33 34 35 36 37 38 39 40 41 42 43 44 45 46 47 48 49 50
000
NZUS01 KOTX 162000
RWROTX
EASTERN WASHINGTON/NORTHERN IDAHO ROUNDUP
NATIONAL WEATHER SERVICE, SPOKANE WA
100 PM PDT TUE SEP 16 2014

Note: "fair" indicated few or no clouds below 12,000 feet with no
significant weather and/or obstructions to visibility.

...NORTHEAST WASHINGTON AND NORTHERN IDAHO PANHANDLE...

CITY           SKY/WX    TMP DP  RH WIND       PRES   REMARKS
SPOKANE INTL   PTSUNNY   76  41  28 NE6       29.89F
SPOKANE DOWNTO MOSUNNY   79  40  24 CALM      29.88F
COEUR D ALENE  PTSUNNY   75  43  31 NE5       29.89F
DEER PARK      MOSUNNY   78  43  28 VRB3      29.90F

...SOUTHEAST WASHINGTON AND SOUTHERN IDAHO PANHANDLE...

CITY           SKY/WX    TMP DP  RH WIND       PRES   REMARKS
WALLA WALLA    MOSUNNY   81  36  19 CALM      29.85F
PULLMAN/MOSCOW MOSUNNY   86  35  16 W9        29.91S
LOWELL           N/A     79  46  31 CALM      29.87F

...COLUMBIA BASIN...

CITY           SKY/WX    TMP DP  RH WIND       PRES   REMARKS
EPHRATA        MOSUNNY   84  33  16 NE9       29.83F
MOSES LAKE     MOSUNNY   84  36  18 VRB3      29.83F
TRI CITIES     MOSUNNY   79  43  27 CALM      29.82F
HERMISTON      MOSUNNY   81  42  25 CALM      29.81F
PENDLETON      MOSUNNY   81  34  18 W7        29.84F

...EAST SLOPES CASCADES...

CITY           SKY/WX    TMP DP  RH WIND       PRES   REMARKS
THE DALLES     MOSUNNY   79  48  33 NW13      29.81F
YAKIMA         SUNNY     83  41  22 E6        29.83F
ELLENSBURG     SUNNY     83  39  21 VRB3      29.85F
WENATCHEE      SUNNY     81  39  22 CALM      29.83F
OMAK           MOSUNNY   81  36  19 N8        29.85F

...SOUTHERN BRITISH COLUMBIA...

CITY           SKY/WX    TMP DP  RH WIND       PRES   REMARKS

...WESTERN MONTANA...

CITY           SKY/WX    TMP DP  RH WIND       PRES   REMARKS
MISSOULA       CLOUDY    72  36  26 VRB3      29.99F

...NEIGHBORING CITIES...

CITY           SKY/WX    TMP DP  RH WIND       PRES   REMARKS
SEATTLE        PTSUNNY   69  54  58 SW7       29.91F



USA.gov is the U.S. government's official web portal to all federal, state and local government web resources and services.